www.pogodaiklimat.ru

Погода и климат >> Архив погоды >> Тунис >> Кассерин


ПОГОДА в Кассерине

  • Прогноз погоды в Кассерине
  • Монитор погоды в Кассерине

АРХИВ ПОГОДЫ в Кассерине

Время (UTC), дата Ветер
(напр.,м/с)
 
Видим.   Явления Облачность Т
(С)
Тd
(С)
f
(%)
Тe
(С)
Тes
(С)
Комфортность P
(гПа)
Po
(гПа)
Тmin
(С)
Tmax
(С)
R
(мм)
R24
(мм)
S
(см)
21 16.01 0-4
{4}
н/о н/о +5.0 +2.4 83 1023.7 939.5
00 17.01 0-4
{4}
н/о н/о +3.4 +3.1 98 1023.3 938.7
03 17.01 0-4
{4}
н/о н/о +0.1 +0.1 100 1023.4 937.8
06 17.01 0-4
{5}
10 км 4/0
[Ac trans Ci sp]
-0.3 -0.3 100 1022.9 937.2 -0.5
09 17.01 штиль 0
{5}
10 км 6/0
[Ac trans Ci sp]
+6.4 +6.4 100 +5 +9 1020.8 937.3
12 17.01 0-5
{5}
10 км 6/0
[Ac trans Ci sp]
+13.3 +11.5 89 1016.8 935.7
15 17.01 0-4
{6}
10 км 5/1 1500 м
[Sc Ci sp]
+14.0 +2.6 46 1015.5 934.5
18 17.01 0-3
{6}
10 км 3/0
[Ac trans]
+8.6 +4.4 75 1017.4 934.8 +14.6
21 17.01 0-3
{6}
10 км 3/0
[Ac trans]
+8.6 +4.4 75 1017.4 934.8 +14.6
00 18.01 0-4
{5}
н/о н/о +1.7 +0.8 94 1020.2 935.3
03 18.01 0-6
{6}
н/о н/о +0.1 -0.6 95 1020.1 934.7
06 18.01 0-5
{6}
10 км 1/1 1500 м
[Sc]
-0.7 -2.0 91 1020.3 934.7 -1.0
09 18.01 0-2
{6}
10 км 3/3 1500 м
[Sc]
+5.9 +0.9 70 1019.3 935.7
12 18.01 0-8
{9}
10 км 5/3 1500 м
[Sc Ac trans]
+12.7 +5.1 60 1015.7 934.4
15 18.01 штиль 0-1
{9}
10 км 8/5 1000 м
[Cu Sc Ac trans]
+12.5 +2.1 49 +12 +13 1015.0 933.6
18 18.01 штиль 0-3
{9}
10 км 5/3 1500 м
[Sc Ac trans]
+9.7 +4.1 68 +9 +9 1016.3 934.1 +14.2
21 18.01 штиль 0-3
{3}
н/о н/о +5.5 +2.3 80 +5 +5 1018.6 935.0
00 19.01 0-4
{4}
н/о н/о +3.6 +2.3 91 1019.4 935.2
03 19.01 0-5
{5}
н/о н/о +2.2 +1.2 93 1019.2 934.6
06 19.01 штиль 0
{5}
10 км 3/0
[Ac trans]
+0.1 +0.1 100 -1 -1 1019.4 934.1 +0.1
09 19.01 штиль 0-2
{6}
10 км 4/4 1500 м
[Sc]
+7.4 +5.2 86 +7 +10 1017.8 934.8
12 19.01 0-7
{7}
10 км 9/5 1000 м
[Cu Sc Ac und]
+11.4 +3.9 60 1015.2 933.5
15 19.01 0-7
{8}
10 км 8/4 1500 м
[Sc Ac und]
+11.7 +3.2 56 1013.5 932.0
18 19.01 0-5
{9}
10 км 8/3 1500 м
[Sc Ac und]
+9.0 +3.8 70 1014.6 932.3 +11.9
21 19.01 0-3
{6}
н/о н/о +7.6 +4.6 81 1015.9 933.1
00 20.01 0-4
{10}
н/о н/о +6.7 +4.4 85 1016.0 933.0
03 20.01 0-4
{5}
н/о н/о +3.0 +2.7 98 1017.2 933.0
06 20.01 0-4
{5}
10 км 1/0
[Ac und]
+0.9 +0.9 100 1017.6 932.7 +0.4
09 20.01 штиль 0
{4}
10 км 3/0
[Ac und Ci sp]
+6.5 +6.5 100 +5 +10 1016.6 933.5
12 20.01 0-8
{9}
10 км 4/0
[Ac und]
+11.7 +4.2 60 1013.1 931.7
15 20.01 0-12
{12}
10 км 8/0
[Ac und Ci sp]
+11.8 +1.7 50 1011.1 929.8
18 20.01 0-9
{13}
10 км 8/0
[Ac und Ci sp]
+8.3 +3.4 71 1012.4 930.1 +12.6
21 20.01 0-6
{11}
н/о н/о +7.2 +3.4 77 1013.1 930.4
00 21.01 штиль 0
{11}
н/о н/о +6.7 +4.5 86 +6 +6 1012.4 929.7
03 21.01 0-3
{6}
н/о н/о +6.5 +5.0 90 1011.6 928.9
06 21.01 0-6
{6}
10 км 6/3 1500 м
[Sc Ac trans]
+4.1 +4.1 100 1011.6 928.2 +4.1
09 21.01 штиль 0-2
{7}
10 км 6/0
[Ac trans]
+10.7 +8.8 88 +10 +13 1009.9 928.6
12 21.01 0-7
{8}
10 км 9/4 1500 м
[Sc Ac trans]
+12.7 +7.6 71 1008.7 928.0
15 21.01 0-10
{10}
10 км 8/5 1000 м
[Cu Sc Ac trans]
+13.3 +4.7 56 1008.5 927.9
18 21.01 0-12
{16}
10 км 8/4 1000 м
[Sc Ac trans]
+9.1 +5.5 78 1010.9 929.0 +14.6
21 21.01 0-12
{19}
н/о н/о +7.7 +4.7 81 1013.2 930.7
00 22.01 0-11
{19}
н/о н/о +7.6 +3.8 77 1014.1 931.5
03 22.01 0-5
{15}
н/о н/о +6.7 +4.0 83 1014.0 931.1
06 22.01 0-13
{16}
10 км 4/1 1500 м
[Sc Ac trans]
+6.1 +3.1 81 1013.6 930.6 +6.1
09 22.01 0-4
{11}
10 км 9/5 1500 м
[Sc Ac und]
+7.3 +3.9 79 1014.7 931.9
12 22.01 0-8
{11}
10 км дождь 9/6 1000 м
[Cu Sc Ac trans]
+7.3 +4.6 83 1013.2 930.6
15 22.01 штиль 0
{7}
10 км слаб. дождь 9/5 1500 м
[Sc Ac und]
+7.6 +5.1 84 +7 +7 1010.5 928.2 0.4
18 22.01 0-2
{7}
10 км {дождь} 9/5 1500 м
[Sc Ac trans Ci sp]
+5.7 +3.9 88 1011.2 928.3 +8.2
21 22.01 0-2
{5}
н/о н/о +2.3 +1.7 96 1012.6 928.5
00 23.01 0-5
{5}
н/о н/о +0.1 +0.1 100 1011.3 926.7
03 23.01 0-5
{6}
н/о н/о -0.2 -0.3 99 1009.5 924.9
06 23.01 0 10 км 9/4 1500 м
[Sc Ac und Ci sp]
+0.9 +0.3 96 1007.6 923.5 -1.1
09 23.01 0-5
{5}
10 км 9/3 1500 м
[Sc Ac trans Ci sp]
+3.8 +2.6 92 1005.9 922.8
12 23.01 0-10
{11}
10 км 9/4 1500 м
[Sc Ac trans]
+10.2 +1.8 56 1001.4 920.5
15 23.01 0-12
{13}
10 км 8/1 1000 м
[Cu Sc Ac und]
+9.7 +7.6 87 919.0
18 23.01 0-11
{13}
10 км 8/1 1000 м
[Cu Sc Ac und]
+7.5 +3.6 76 918.2 +10.7

 

Местоположение метеостанции Кассерин (Тунис): широта 35.15 долгота 8.45 высота над уровнем моря 707 м.

В архиве по умолчанию представлена погода в Кассерине за последнюю неделю. Архивные данные за месяц целиком и за предыдущие месяцы, начиная с января 2011 года, Вы можете получить, выбрав интересующий диапазон дат из раскрывающегося списка и нажав кнопку "Ввод!".


*Определитесь, кто Вы:
робот инопланетянин человек

Внимание! Время в таблицах - всемирное. Для получения местного времени необходимо прибавить поправку, которая равна 1 ч.

Смотрите также архив погоды в соседних городах и на ближайших метеорологических станциях:

Погода в Тебессе (Алжир) (42 км)
Погода в Тале (Тунис) (49 км)
Погода в Гафсе (Тунис) (88 км)
Погода в Сиди Бузид (Тунис) (95 км)
Погода в Эль-Кефе (Тунис) (111 км)
Погода в Хеншеле (Алжир) (129 км)
Погода в Силиане (Тунис) (132 км)
Погода в Сук-Ахрасе (Алжир) (133 км)
Погода в Таузаре (Тунис) (139 км)
Погода в Умм-эль-Буаги (Алжир) (145 км)

Пояснения к столбцам:

Ветер - указаны скорость ветра в м/с - средняя за 10 мин, порывы в срок и между сроками (в фигурных скобках) и направление, откуда дует ветер: С - северный, СВ - северо-восточный, В - восточный, ЮВ - юго-восточный, Ю - южный, ЮЗ - юго-западный, З - западный, СЗ - северо-западный.
Видимость - горизонтальная дальность видимости в метрах или километрах. При видимости от 1 до 10 км при отсутствии осадков обычно наблюдается дымка, при ухудшении видимости до 1 км и менее - туман. В сухую погоду видимость может ухудшаться дымом, пылью или мглою.
Явления - указаны атмосферные явления, наблюдавшиеся в срок или в последний час перед сроком; фигурными скобками обозначены явления, наблюдавшиеся между сроками (за 1-3 часа до срока); квадратными скобками обозначены град или гололедные отложения с указанием их диаметра в мм.
Облачность - указаны через наклонную черту общая и нижняя облачность в баллах и высота нижней границы облаков в метрах; квадратными скобками обозначены формы облаков: Ci - перистые, Cs - перисто-слоистые, Cc - перисто-кучевые, Ac - высококучевые, As - высокослоистые, Sc - слоисто-кучевые, Ns - слоисто-дождевые, Cu - кучевые, Cb - кучево-дождевые. Подробнее классификацию облаков см. в Атласе облаков (PDF).
T - Температура воздуха - температура, измеренная на высоте 2 м над землей.
Td - Температура точки росы - температура, при понижении до которой содержащийся в воздухе водяной пар достигнет насыщения.
f - Относительная влажность воздуха - влажноcть воздуха, измеренная на высоте 2 м над землей.
Te - Эффективная температура - температура, которую ощущает одетый по сезону человек в тени. Характеристика душности погоды. При расчете учитывается влияние влажности воздуха и скорости ветра на теплоощущения человека.
Tes - Эффективная температура на солнце - температура, которую ощущает человек, с поправкой на солнечный нагрев. Характеристика знойности погоды. Зависит от высоты солнца над горизонтом, облачности и скорости ветра. Ночью, в пасмурную погоду, а также при ветре 12 м/с и более поправка равна нулю.
P - Атмосферное давление - приведенное к уровню моря атмосферное давление.
Po - Атмосферное давление - измеренное на уровне метеостанции атмосферное давление.
Tmin - Минимальная температура - минимум температуры воздуха на высоте 2 м над землей.
Tmax - Максимальная температура - максимум температуры воздуха на высоте 2 м над землей.
R - Количество осадков - Количество выпавших осадков за период времени, мм. При наведении курсора мыши на число - период времени, за который выпало указанное количество осадков.
R24 - Количество осадков - Количество выпавших осадков за 24 часа, мм.
S - Снежный покров - Высота снежного покрова, см. При наведении курсора мыши на число - состояние снежного покрова и степень покрытия местности в баллах.